Regional Weather Roundup
Issued by NWS State College, PA

Home | Current Version | Previous Version | Text Only | Print | Product List | Glossary On
Versions: 1 2 3 4 5 6 7 8 9 10 11 12 13 14 15 16 17 18 19 20 21 22 23 24 25 26 27 28 29 30 31 32 33 34 35 36 37 38 39 40 41 42 43 44 45 46 47 48 49 50
000
ASUS41 KCTP 260703
RWRCTP

REGIONAL WEATHER ROUNDUP
NATIONAL WEATHER SERVICE STATE COLLEGE PA
300 AM EDT TUE MAY 26 2015

Note: "fair" indicates few or no clouds below 12,000 feet with no
significant weather and/or obstructions to visibility.

* = STATION THAT DOES NOT REPORT PRECIPITATION /E.G. RAIN...SNOW...ETC/
    THUNDER OR FOG.

PAZ002>004-007>009-013>016-020>023-029>032-260800-
WESTERN PENNSYLVANIA

CITY           SKY/WX    TMP DP  RH WIND       PRES   REMARKS
ERIE           PTCLDY    72  59  63 S10       30.08S
MEADVILLE      CLEAR     68  58  70 SW5       30.13S
FRANKLIN*      CLEAR     66  57  72 SW7       30.16F
NEW CASTLE     PTSUNNY   70  64  81 CALM      30.14F
BEAVER COUNTY  NOT AVBL
BUTLER*        CLOUDY    70  61  73 SW3       30.16F
PITTSBURGH INT CLOUDY    72  61  68 S5        30.15S
PITTSBURGH     CLOUDY    70  59  68 S8        30.15F
INDIANA*       MOCLDY    68  64  88 SW5       30.21S HAZE
LATROBE        CLOUDY    68  64  88 CALM      30.18F
WASHINGTON CO* MOCLDY    64  63  94 CALM      30.19R
$$

PAZ004>006-010>012-017>019-024>028-033>037-041-042-045-046-049>053-260800-
CENTRAL PENNSYLVANIA

CITY           SKY/WX    TMP DP  RH WIND       PRES   REMARKS
BRADFORD       PTCLDY    68  58  70 SW5       30.16S
DUBOIS         CLOUDY    69  60  73 SW6       30.16S
CLEARFIELD     CLOUDY    67  59  75 CALM      30.18S
JOHNSTOWN      MOCLDY    66  55  67 SW6       30.21S
ALTOONA        CLOUDY    66  58  75 W3        30.19S
STATE COLLEGE  CLOUDY    68  59  73 W5        30.17S
WILLIAMSPORT   CLOUDY    70  60  70 SE3       30.14R
SELINSGROVE    PTCLDY    68  58  70 S5        30.16S
FT INDIANTOWN  CLEAR     60  60  97 CALM      30.18S
CAPITAL CITY   CLEAR     65  58  78 CALM      30.17S
HARRISBURG     MOCLDY    68  61  78 S5        30.16F
YORK           CLEAR     67  59  75 VRB5      30.18S
$$

PAZ038>040-043-044-047-048-054-055-060>062-067>071-260800-
EASTERN PENNSYLVANIA

CITY           SKY/WX    TMP DP  RH WIND       PRES   REMARKS
SCRANTON       PTCLDY    70  57  63 SW5       30.16F
MOUNT POCONO   CLEAR     62  56  80 W5        30.21S
ALLENTOWN      CLEAR     63  57  81 SW6       30.18S
QUAKERTOWN*    SUNNY     64  57  77 SW5       30.20S
READING        CLEAR     67  58  72 S5        30.17F
LANCASTER      CLEAR     63  58  83 CALM      30.19S
COATESVILLE    SUNNY     63  59  88 CALM      30.22S
POTTSTOWN      CLEAR     65  57  75 CALM      30.21S
BLUE BELL      CLEAR     66  55  68 SW5       30.20S
DOYLESTOWN     CLEAR     64  56  75 S5        30.19S
WILLOW GROVE   NOT AVBL
NORTH PHILA    CLEAR     69  52  54 SW8       30.21S
PHILADELPHIA   CLEAR     67  54  63 S9        30.21S
$$


USA.gov is the U.S. government's official web portal to all federal, state and local government web resources and services.